TimeEST,TemperatureF,Dew PointF,Humidity,Sea Level PressureIn,VisibilityMPH,Wind Direction,Wind SpeedMPH,Gust SpeedMPH,PrecipitationIn,Events,Conditions,WindDirDegrees,DateUTC
12:15 AM,51.8,32.0,47,29.74,10.0,SSW,11.5,-,N/A,,Scattered Clouds,200,2011-11-13 05:15:00
12:35 AM,51.8,32.0,47,29.73,10.0,SSW,16.1,26.5,N/A,,Mostly Cloudy,200,2011-11-13 05:35:00
12:54 AM,51.8,32.0,47,29.72,10.0,SSW,13.8,18.4,N/A,,Mostly Cloudy,200,2011-11-13 05:54:00
1:35 AM,51.8,33.8,50,29.71,10.0,South,12.7,25.3,N/A,,Scattered Clouds,190,2011-11-13 06:35:00
1:54 AM,51.8,33.8,50,29.71,10.0,South,17.3,23.0,N/A,,Scattered Clouds,190,2011-11-13 06:54:00
2:15 AM,51.8,33.8,50,29.70,10.0,South,17.3,21.9,N/A,,Scattered Clouds,190,2011-11-13 07:15:00
2:35 AM,51.8,35.6,54,29.69,10.0,South,13.8,20.7,N/A,,Mostly Cloudy,190,2011-11-13 07:35:00
3:15 AM,51.8,35.6,54,29.68,10.0,South,16.1,20.7,N/A,,Clear,190,2011-11-13 08:15:00
3:34 AM,51.8,35.6,54,29.67,10.0,South,15.0,25.3,N/A,,Clear,190,2011-11-13 08:34:00
3:55 AM,51.8,35.6,54,29.67,10.0,South,13.8,21.9,N/A,,Mostly Cloudy,190,2011-11-13 08:55:00
4:14 AM,51.8,35.6,54,29.65,10.0,South,15.0,24.2,N/A,,Overcast,190,2011-11-13 09:14:00
4:35 AM,51.8,35.6,54,29.65,10.0,South,21.9,25.3,N/A,,Overcast,190,2011-11-13 09:35:00
4:55 AM,51.8,35.6,54,29.65,10.0,South,16.1,26.5,N/A,,Overcast,190,2011-11-13 09:55:00
5:14 AM,51.8,35.6,54,29.65,10.0,South,15.0,26.5,N/A,,Overcast,180,2011-11-13 10:14:00
5:35 AM,51.8,35.6,54,29.64,10.0,South,18.4,26.5,N/A,,Overcast,190,2011-11-13 10:35:00
6:35 AM,53.6,37.4,54,29.63,10.0,South,16.1,26.5,N/A,,Overcast,190,2011-11-13 11:35:00
6:55 AM,51.8,37.4,58,29.62,10.0,South,16.1,25.3,N/A,,Mostly Cloudy,190,2011-11-13 11:55:00
7:15 AM,51.8,37.4,58,29.62,10.0,South,23.0,27.6,N/A,,Scattered Clouds,190,2011-11-13 12:15:00
7:35 AM,51.8,37.4,58,29.62,10.0,South,18.4,25.3,N/A,,Clear,190,2011-11-13 12:35:00
7:54 AM,51.8,37.4,58,29.61,10.0,South,15.0,28.8,N/A,,Mostly Cloudy,190,2011-11-13 12:54:00
8:15 AM,53.6,37.4,54,29.60,10.0,South,17.3,26.5,N/A,,Mostly Cloudy,190,2011-11-13 13:15:00
8:35 AM,53.6,37.4,54,29.61,10.0,SSW,21.9,26.5,N/A,,Mostly Cloudy,200,2011-11-13 13:35:00
8:54 AM,53.6,37.4,54,29.61,10.0,South,20.7,28.8,N/A,,Overcast,190,2011-11-13 13:54:00
9:35 AM,53.6,39.2,58,29.61,10.0,SSW,16.1,26.5,N/A,,Overcast,200,2011-11-13 14:35:00
9:54 AM,55.4,41.0,58,29.60,10.0,South,15.0,23.0,N/A,,Overcast,190,2011-11-13 14:54:00
10:15 AM,55.4,41.0,58,29.61,10.0,South,17.3,25.3,N/A,,Overcast,190,2011-11-13 15:15:00
10:35 AM,55.4,41.0,58,29.59,10.0,South,17.3,25.3,N/A,,Overcast,190,2011-11-13 15:35:00
10:54 AM,55.4,41.0,58,29.58,10.0,South,17.3,29.9,N/A,,Mostly Cloudy,190,2011-11-13 15:54:00
11:35 AM,55.4,41.0,58,29.56,10.0,South,20.7,27.6,N/A,,Overcast,190,2011-11-13 16:35:00
11:55 AM,57.2,42.8,59,29.55,10.0,SSW,19.6,28.8,N/A,,Mostly Cloudy,200,2011-11-13 16:55:00
12:15 PM,57.2,42.8,59,29.54,10.0,SSW,21.9,29.9,N/A,,Mostly Cloudy,200,2011-11-13 17:15:00
12:35 PM,59.0,42.8,55,29.53,10.0,SSW,12.7,28.8,N/A,,Overcast,200,2011-11-13 17:35:00
12:55 PM,59.0,44.6,59,29.52,10.0,SSW,20.7,29.9,N/A,,Overcast,200,2011-11-13 17:55:00
1:15 PM,59.0,44.6,59,29.52,10.0,SSW,18.4,25.3,N/A,,Overcast,200,2011-11-13 18:15:00
1:34 PM,60.8,44.6,55,29.51,10.0,SSW,21.9,29.9,N/A,,Overcast,200,2011-11-13 18:34:00
1:55 PM,60.8,46.4,59,29.50,10.0,SSW,12.7,25.3,N/A,,Overcast,200,2011-11-13 18:55:00
2:15 PM,60.8,46.4,59,29.48,10.0,SSW,16.1,27.6,N/A,,Overcast,200,2011-11-13 19:15:00
2:34 PM,60.8,46.4,59,29.48,10.0,South,15.0,27.6,N/A,,Overcast,190,2011-11-13 19:34:00
2:55 PM,60.8,46.4,59,29.48,10.0,SSW,16.1,27.6,N/A,,Overcast,200,2011-11-13 19:55:00
3:15 PM,60.8,46.4,59,29.48,10.0,SSW,13.8,24.2,N/A,,Overcast,200,2011-11-13 20:15:00
3:34 PM,60.8,46.4,59,29.48,10.0,South,15.0,25.3,N/A,,Overcast,190,2011-11-13 20:34:00
3:55 PM,60.8,46.4,59,29.47,10.0,South,16.1,21.9,N/A,,Overcast,190,2011-11-13 20:55:00
4:15 PM,60.8,46.4,59,29.46,10.0,South,15.0,26.5,N/A,,Overcast,190,2011-11-13 21:15:00
4:35 PM,60.8,48.2,63,29.46,10.0,South,12.7,26.5,N/A,,Overcast,190,2011-11-13 21:35:00
4:55 PM,60.8,48.2,63,29.46,10.0,South,15.0,29.9,N/A,,Overcast,190,2011-11-13 21:55:00
5:15 PM,60.8,48.2,63,29.45,10.0,South,18.4,26.5,N/A,,Overcast,190,2011-11-13 22:15:00
5:35 PM,60.8,48.2,63,29.44,10.0,South,17.3,27.6,N/A,,Mostly Cloudy,190,2011-11-13 22:35:00
5:55 PM,60.8,48.2,63,29.44,10.0,South,15.0,29.9,N/A,,Scattered Clouds,190,2011-11-13 22:55:00
6:14 PM,60.8,50.0,68,29.44,10.0,South,21.9,27.6,N/A,,Clear,190,2011-11-13 23:14:00
6:35 PM,60.8,50.0,68,29.44,10.0,SSW,19.6,28.8,N/A,,Clear,200,2011-11-13 23:35:00
6:55 PM,60.8,50.0,68,29.45,10.0,SSW,17.3,31.1,N/A,,Clear,200,2011-11-13 23:55:00
7:14 PM,60.8,50.0,68,29.46,10.0,SSW,17.3,25.3,N/A,,Clear,200,2011-11-14 00:14:00
7:35 PM,60.8,50.0,68,29.46,10.0,SSW,12.7,27.6,N/A,,Scattered Clouds,200,2011-11-14 00:35:00
7:54 PM,60.8,50.0,68,29.46,10.0,SSW,17.3,28.8,N/A,,Scattered Clouds,200,2011-11-14 00:54:00
8:15 PM,60.8,50.0,68,29.45,10.0,SSW,18.4,28.8,N/A,,Clear,200,2011-11-14 01:15:00
8:35 PM,60.8,50.0,68,29.44,10.0,SSW,21.9,28.8,N/A,,Clear,200,2011-11-14 01:35:00
8:54 PM,60.8,50.0,68,29.44,10.0,SSW,25.3,32.2,N/A,,Scattered Clouds,200,2011-11-14 01:54:00
9:15 PM,62.6,50.0,63,29.45,10.0,SSW,19.6,28.8,N/A,,Overcast,200,2011-11-14 02:15:00
9:34 PM,62.6,50.0,63,29.46,10.0,SSW,19.6,26.5,N/A,,Overcast,210,2011-11-14 02:34:00
9:55 PM,60.8,50.0,68,29.48,10.0,SSW,13.8,21.9,N/A,,Overcast,210,2011-11-14 02:55:00
10:15 PM,62.6,51.8,68,29.48,10.0,SW,16.1,23.0,N/A,,Overcast,220,2011-11-14 03:15:00
10:34 PM,60.8,53.6,77,29.50,7.0,SW,19.6,40.3,N/A,Rain,Rain,230,2011-11-14 03:34:00
10:55 PM,59.0,51.8,77,29.52,10.0,West,12.7,25.3,N/A,,Overcast,270,2011-11-14 03:55:00
11:15 PM,55.4,48.2,77,29.53,10.0,West,13.8,-,N/A,,Overcast,280,2011-11-14 04:15:00
11:35 PM,55.4,44.6,67,29.54,10.0,West,12.7,18.4,N/A,,Mostly Cloudy,260,2011-11-14 04:35:00
11:55 PM,55.4,42.8,63,29.55,10.0,WSW,13.8,20.7,N/A,,Scattered Clouds,240,2011-11-14 04:55:00